User: anonymous   Login
Location: Trois-Rivi�res
(46.3500°N, 72.5500°W)
Time: 03:47:32
(UTC-04:00)
Language:

SJ-11-01 - Orbit

View from above orbital plane
View from above orbital plane
View from above satellite
View from above satellite

Ground track
Ground track

The orbit data is extracted from the following two-line orbital elements,

1 36088U 09061A   14296.80813566  .00000658  00000-0  14581-3 0  5166
2 36088 098.0210 341.1380 0012307 044.1345 316.0833 14.60179874263508
Epoch (UTC): 23 October 2014 19:23:42
Eccentricity: 0.0012307
inclination: 98.0210°
perigee height: 684 km
apogee height: 701 km
right ascension of ascending node: 341.1380°
argument of perigee: 44.1345°
revolutions per day: 14.60179874
mean anomaly at epoch: 316.0833°
orbit number at epoch: 26350

The dashed part of the orbit path shows where the satellite is in the earth's shadow,  

DLR